DAL1267 KBOS-KSAN

Flight info

Callsign DAL1267
Flight time N/A
Altitude 38000
Route BLZZR6 BLZZR BAF Q480 AIR J80 JAAVE/N0473F400 J80 MCI J24 SLN J18 HOGGZ LUCKI1
Aircraft A332/H-SDE3GHIJ2J3J5M1RVWXY/LB2D1

Departure

Time 2026-05-05 23:45
Airport Boston Logan International Airport (KBOS)

Arrival

Time N/A
Airport San Diego International Airport (KSAN)
Time Latitude Longitude Altitude Speed Heading
2026-05-05 22:57 42.35982 -71.01690 31 ft 0 kts 315°
2026-05-05 23:14 42.35982 -71.01689 33 ft 0 kts 315°
2026-05-05 23:30 42.35981 -71.01688 33 ft 2 kts 315°
2026-05-05 23:31 42.35966 -71.01672 31 ft 3 kts 353°
2026-05-05 23:31 42.35948 -71.01670 31 ft 3 kts 333°
2026-05-05 23:31 42.35931 -71.01663 32 ft 3 kts 345°
2026-05-05 23:31 42.35914 -71.01653 31 ft 3 kts
2026-05-05 23:32 42.35903 -71.01655 32 ft 0 kts 13°
2026-05-05 23:33 42.35891 -71.01661 33 ft 3 kts 47°
2026-05-05 23:33 42.35882 -71.01681 33 ft 2 kts 88°
2026-05-05 23:34 42.35883 -71.01650 33 ft 12 kts 89°
2026-05-05 23:34 42.35907 -71.01556 33 ft 10 kts 56°
2026-05-05 23:34 42.35957 -71.01520 32 ft 10 kts 19°
2026-05-05 23:35 42.36022 -71.01488 32 ft 15 kts 20°
2026-05-05 23:35 42.36114 -71.01443 32 ft 18 kts 20°
2026-05-05 23:35 42.36253 -71.01375 28 ft 16 kts 20°
2026-05-05 23:36 42.36346 -71.01329 28 ft 16 kts 19°
2026-05-05 23:36 42.36443 -71.01282 28 ft 18 kts 19°
2026-05-05 23:36 42.36559 -71.01226 29 ft 18 kts 19°
2026-05-05 23:37 42.36672 -71.01170 32 ft 17 kts 19°
2026-05-05 23:37 42.36789 -71.01141 30 ft 16 kts 359°
2026-05-05 23:37 42.36827 -71.01172 28 ft 5 kts 310°
2026-05-05 23:37 42.36855 -71.01203 28 ft 2 kts 339°
2026-05-05 23:38 42.36857 -71.01204 28 ft 0 kts 343°
2026-05-05 23:38 42.36858 -71.01204 28 ft 0 kts 343°
2026-05-05 23:38 42.36869 -71.01208 28 ft 3 kts 347°
2026-05-05 23:39 42.36892 -71.01201 28 ft 5 kts 24°
2026-05-05 23:39 42.36940 -71.01156 28 ft 11 kts 36°
2026-05-05 23:39 42.36991 -71.01111 28 ft 15 kts 31°
2026-05-05 23:39 42.37087 -71.01045 28 ft 17 kts 26°
2026-05-05 23:40 42.37194 -71.00975 29 ft 17 kts 26°
2026-05-05 23:40 42.37251 -71.00937 26 ft 1 kts 26°
2026-05-05 23:40 42.37252 -71.00937 26 ft 1 kts 26°
2026-05-05 23:40 42.37260 -71.00932 28 ft 3 kts 26°
2026-05-05 23:41 42.37304 -71.00903 28 ft 11 kts 26°
2026-05-05 23:41 42.37395 -71.00859 28 ft 17 kts 19°
2026-05-05 23:41 42.37524 -71.00799 28 ft 21 kts 19°
2026-05-05 23:41 42.37660 -71.00733 30 ft 20 kts 19°
2026-05-05 23:42 42.37770 -71.00656 33 ft 14 kts 55°
2026-05-05 23:42 42.37774 -71.00634 33 ft 2 kts 82°
2026-05-05 23:42 42.37773 -71.00613 33 ft 3 kts 100°
2026-05-05 23:42 42.37762 -71.00562 31 ft 8 kts 114°
2026-05-05 23:43 42.37721 -71.00516 30 ft 7 kts 157°
2026-05-05 23:43 42.37701 -71.00519 30 ft 2 kts 200°
2026-05-05 23:43 42.37689 -71.00525 31 ft 2 kts 200°
2026-05-05 23:43 42.37668 -71.00535 31 ft 11 kts 200°
2026-05-05 23:44 42.37366 -71.00679 27 ft 85 kts 199°
2026-05-05 23:44 42.36582 -71.01058 33 ft 151 kts 199°
2026-05-05 23:44 42.35405 -71.01614 28 ft 204 kts 200°
2026-05-05 23:44 42.34089 -71.02443 594 ft 215 kts 211°
2026-05-05 23:45 42.33030 -71.03661 2041 ft 192 kts 225°